This is the latest recevied weather packets stored in our database for station/object WA1OUI. If no packets are shown the sender has not sent any weather packets the latest 10 day(s).
| Time | Temp. | Humidity | Pressure | Rain* | Wind** | Luminosity | Snow |
|---|---|---|---|---|---|---|---|
| 1777399137 | 20.56° C | 34% | 1018 hPa | 0 mm | - | 424 W/m² | - |
| 1777398833 | 20.56° C | 34% | 1018.2 hPa | 0 mm | - | 495 W/m² | - |
| 1777398531 | 20.56° C | 34% | 1018.1 hPa | 0 mm | - | 556 W/m² | - |
| 1777398227 | 20.56° C | 34% | 1018.1 hPa | 0 mm | - | 510 W/m² | - |
| 1777397924 | 20.56° C | 35% | 1018.1 hPa | 0 mm | - | 537 W/m² | - |
| 1777397619 | 21.11° C | 35% | 1018.2 hPa | 0 mm | - | 585 W/m² | - |
| 1777397316 | 21.11° C | 34% | 1018.3 hPa | 0 mm | - | 577 W/m² | - |
| 1777397013 | 20.56° C | 34% | 1018.4 hPa | 0 mm | - | 534 W/m² | - |
| 1777396710 | 20.56° C | 35% | 1018.5 hPa | 0 mm | - | 597 W/m² | - |
| 1777396406 | 20.56° C | 36% | 1018.5 hPa | 0 mm | - | 557 W/m² | - |
| 1777396103 | 20° C | 35% | 1018.4 hPa | 0 mm | - | 595 W/m² | - |
| 1777395799 | 20.56° C | 36% | 1018.5 hPa | 0 mm | - | 652 W/m² | - |
| 1777394596 | 20° C | 35% | 1018.6 hPa | 0 mm | - | 464 W/m² | - |
| 1777394293 | 20° C | 35% | 1018.6 hPa | 0 mm | - | 464 W/m² | - |
| 1777393990 | 20° C | 36% | 1018.7 hPa | 0 mm | - | 446 W/m² | - |
| 1777393689 | 20° C | 34% | 1018.9 hPa | 0 mm | - | 615 W/m² | - |
| 1777393385 | 20° C | 35% | 1018.9 hPa | 0 mm | - | 528 W/m² | - |
| 1777393081 | 20° C | 37% | 1018.8 hPa | 0 mm | - | 714 W/m² | - |
| 1777392776 | 20° C | 35% | 1018.8 hPa | 0 mm | - | 738 W/m² | - |
| 1777392473 | 20° C | 36% | 1019 hPa | 0 mm | - | 706 W/m² | - |
| 1777392169 | 20° C | 36% | 1018.8 hPa | 0 mm | - | 728 W/m² | - |
| 1777391864 | 20° C | 35% | 1018.9 hPa | 0 mm | - | 732 W/m² | - |
| 1777391559 | 19.44° C | 38% | 1018.9 hPa | 0 mm | - | 751 W/m² | - |
| 1777391256 | 19.44° C | 38% | 1019 hPa | 0 mm | - | 713 W/m² | - |
| 1777390953 | 19.44° C | 38% | 1019.1 hPa | 0 mm | - | 740 W/m² | - |
* Rain latest hour (hover to see other rain measurements)
** Current wind speed in m/s (hover to see current wind gust speed)